Tracking 25701 objects as of 3-Jul-2022
HD Live streaming from Space Station
objects crossing your sky now

FLOCK 1C 5

Track FLOCK 1C 5 now!
10-day predictions
FLOCK 1C 5 is classified as:


NORAD ID: 40038
Int'l Code: 2014-033AE
Perigee: 586.2 km
Apogee: 605.0 km
Inclination: 98.0 °
Period: 96.4 minutes
Semi major axis: 6966 km
RCS: Unknown
Launch date: June 19, 2014
Source: United States (US)
Launch site: Orenburg, Russia (OREN)
aabbcc
Your satellite tracking list
Your tracking list is empty




NASA's NSSDC Master Catalog

Two Line Element Set (TLE):
1 40038U 14033AE  22183.41533792  .00002339  00000-0  23027-3 0  9990
2 40038  98.0104 132.3759 0013528 358.7783   1.3400 14.93033447436244
Source of the keplerian elements: AFSPC